Tracking 18844 objects as of 21-Nov-2017
HD Live streaming from Space Station
objects crossing your sky now

COSMOS 1052

Track COSMOS 1052 now!
10-day predictions
COSMOS 1052 is classified as:


NORAD ID: 11129
Int'l Code: 1978-109B
Perigee: 1,417.4 km
Apogee: 1,495.2 km
Inclination: 74.0 °
Period: 114.9 minutes
Semi major axis: 7827 km
RCS: 0.7004 m2 (medium)
Launch date: December 5, 1978
Source: Commonwealth of Independent States (former USSR) (CIS)
Launch site: PLESETSK MISSILE AND SPACE COMPLEX (PKMTR)
aabbcc
Your satellite tracking list
Your tracking list is empty




NASA's NSSDC Master Catalog

Two Line Element Set (TLE):
1 11129U 78109B   17324.65018922 -.00000015 +00000-0 +60210-5 0  9990
2 11129 074.0182 023.6649 0049721 204.5073 269.3843 12.53678274782964
Source of the keplerian elements: AFSPC